User: anonymous   Login
Location: Stoke Bliss
(52.2667°N, 2.5167°W)
Time: 20:43:49
(UTC+00:00)
Language:

Ariane Rocket - Orbit

View from above orbital plane
View from above orbital plane
View from above satellite
View from above satellite

Ground track
Ground track

The orbit data is extracted from the following two-line orbital elements,

1 23561U 95021B   21136.75651997  .00000035  00000-0  26603-4 0  9995
2 23561  98.6770 186.2477 0006620 355.5218 115.5951 14.38025331366477
Epoch (UTC): 16 May 2021 18:09:23
Eccentricity: 0.0006620
inclination: 98.6770°
perigee height: 760 km
apogee height: 770 km
right ascension of ascending node: 186.2477°
argument of perigee: 355.5218°
revolutions per day: 14.38025331
mean anomaly at epoch: 115.5951°
orbit number at epoch: 36647

The dashed part of the orbit path shows where the satellite is in the earth's shadow,  

DLR